Content
SEND FEEDBACK

Daily
Averages
Monthly
Summary
United States of America

ERIE, KANSAS


Home > North America > United States > Kansas
Elevation: 919 feet     Latitude: 37 35N     Longitude: 095 14W

WEATHER
 
SELECT A DAY
Number of Records: 199,158;   Date Range: 1/1/95 - 9/29/14
 
SHARE

PRINT THIS DATA

[ ← Previous Day ]
WEATHER ALMANAC - FEBRUARY 5, 2013
[ Next Day → ]
[ °C ]   °F
Weather ElementAverageHighLow
Temperature42 °F62.6 °F (4:52 pm)24.1 °F (4:52 am)
Dewpoint28 °F34 °F (11:52 am)21 °F (6:52 am)
Humidity63 %92 % (7:52 am)26 % (3:52 pm)
Barometer30.01 in30.08 in (9:52 pm)29.94 in (3:52 am)
Wind Speed4.1 mph9.2 mph (1:52 pm)
Weather ElementAverage
Visibility8.6 mi
Wind DirectionSE (135.2 °)

Weather ElementTotal
Precipitation---
Heating Degree Days21.7 (Base 65)
Averaged from 23 records on February 5, 2013
WEATHER CONDITIONS BREAKOUT
WIND DIRECTION BREAKOUT
WEATHER BY HOUR - FEBRUARY 5, 2013
[ °C ]   °F
Local TimeTemperatureDewpointHumidityBarometerVisibilityWind DirectionWind SpeedGust SpeedPrecipitationEventsConditions
1:52 AM27.0 °F24.1 °F89 %29.96 in9.0 miCalmClear
2:52 AM26.1 °F23.0 °F88 %29.96 in8.0 miSouth (170°)3.5 mphClear
3:52 AM25.0 °F21.9 °F88 %29.94 in5.0 miCalmClear
4:52 AM24.1 °F21.9 °F91 %29.96 in6.0 miCalmClear
5:52 AM25.0 °F21.9 °F88 %29.96 in4.0 miCalmClear
6:52 AM24.1 °F21.0 °F88 %29.98 in5.0 miCalmClear
7:52 AM26.1 °F24.1 °F92 %30.00 in4.0 miCalmClear
8:52 AM34.0 °F30.0 °F85 %30.02 in7.0 miWSW (250°)4.6 mphClear
9:52 AM39.9 °F32.0 °F73 %30.03 in10.0 miWest (270°)8.1 mphClear
10:52 AM46.0 °F33.1 °F61 %30.03 in10.0 miWest (260°)6.9 mphClear
11:52 AM50.0 °F34.0 °F54 %30.04 in10.0 miWNW (290°)8.1 mphClear
12:52 PM55.9 °F34.0 °F44 %30.01 in10.0 miNW (310°)8.1 mphClear
1:52 PM62.1 °F30.9 °F31 %30.01 in10.0 miNorth (350°)9.2 mphClear
2:52 PM62.1 °F28.0 °F28 %30.00 in10.0 miNorth (350°)6.9 mphClear
3:52 PM62.1 °F27.0 °F26 %30.00 in10.0 miNNW (340°)3.5 mphClear
4:52 PM62.6 °F28.4 °F27 %30.00 in10.0 miNNE (20°)5.8 mphClear
5:52 PM51.1 °F28.9 °F43 %30.01 in10.0 miCalmClear
6:52 PM50.0 °F28.9 °F44 %30.04 in10.0 miEast (80°)4.6 mphClear
7:52 PM45.0 °F30.0 °F56 %30.06 in10.0 miNNE (20°)4.6 mphClear
8:52 PM45.0 °F30.9 °F58 %30.07 in10.0 miEast (80°)4.6 mphClear
9:52 PM45.0 °F30.9 °F58 %30.08 in10.0 miEast (100°)6.9 mphClear
10:52 PM42.1 °F30.0 °F62 %30.08 in10.0 miEast (100°)5.8 mphClear
11:52 PM35.1 °F28.0 °F76 %30.08 in10.0 miESE (120°)3.5 mphClear
Hourly data recorded from KCNU, located miles away from Erie, Kansas







STORIES FROM OUR PARTNERS